HUAL Seoul — LADO6 — position and weather

sailwx.info

Track history (hours):
 
Tides and Currents Weather Stations Pressure Air Temp Water Temp Dewpoint Dewpoint Depression Visibility Wind Speed Wind Dir Waves Ship Positions

HUAL Seoul

Last reported at 2014-Jul-23 11:10 UTC. Time now 2014-Jul-23 11:58 UTC.
Position N 39°34' W 075°33'.

Type: Cargo ship. MMSI: 257496000.

Date/timePositionNaut miles runAvg speedWind from/ knotsBaromVisibWave heightAir tempDewpointWater temp
2014-Jul-23 11:10N 39°34' W 075°33'710.5
2014-Jul-23 10:27N 39°41' W 075°31'1 0.3
2014-Jul-23 05:28N 39°42' W 075°31'1 0.1
2014-Jul-22 19:29N 39°43' W 075°30'19 9.6
2014-Jul-22 17:31N 39°53' W 075°09'2 0.3
2014-Jul-22 11:23N 39°54' W 075°08'0 0.0
2014-Jul-22 08:29N 39°54' W 075°08'0 0.0
2014-Jul-22 06:29N 39°54' W 075°08'0 0.0
2014-Jul-22 05:23N 39°54' W 075°08'0 0.0
2014-Jul-22 04:32N 39°54' W 075°08'0 0.0
2014-Jul-22 03:32N 39°54' W 075°08'0 0.0
2014-Jul-22 02:32N 39°54' W 075°08'3 0.7
2014-Jul-21 22:12N 39°53' W 075°12'812.5
2014-Jul-21 21:33N 39°50' W 075°21'1413.1
2014-Jul-21 20:30N 39°39' W 075°33'5416.4
2014-Jul-21 17:13N 38°51' W 075°04'710.7
2014-Jul-21 16:33N 38°45' W 074°58'1313.3
2014-Jul-21 15:33N 38°35' W 074°47'  
2014-Jul-18 16:04N 26°47' W 079°25'2715.9
2014-Jul-18 14:23N 26°28' W 079°04'1514.9
2014-Jul-18 13:21N 26°19' W 078°51'25 0.9
2014-Jul-17 09:33N 26°16' W 079°19'1615.7
2014-Jul-17 08:33N 26°04' W 079°30'1918.9
2014-Jul-17 07:33N 25°46' W 079°35'4319.1
2014-Jul-17 05:18N 25°08' W 079°57'  
2014-Jul-14 23:25N 29°19' W 094°49'0 0.1
2014-Jul-14 22:32N 29°19' W 094°49'0 0.0
2014-Jul-14 21:26N 29°19' W 094°49'0 0.0
2014-Jul-14 20:32N 29°19' W 094°49'0 0.0
2014-Jul-14 19:32N 29°19' W 094°49'0 0.0
2014-Jul-14 18:32N 29°19' W 094°49'0 0.0
2014-Jul-14 17:32N 29°19' W 094°49'0 0.0
2014-Jul-14 16:32N 29°19' W 094°49'0 0.0
2014-Jul-14 15:33N 29°19' W 094°49'0 0.0
2014-Jul-14 14:33N 29°19' W 094°49'0 0.0
2014-Jul-14 13:33N 29°19' W 094°49'0 0.0
2014-Jul-14 12:30N 29°19' W 094°49'5 1.8
2014-Jul-14 09:31N 29°21' W 094°43'1211.7
2014-Jul-14 08:29N 29°15' W 094°31'  
Track history (hours):
 
Tides and Currents Weather Stations Pressure Air Temp Water Temp Dewpoint Dewpoint Depression Visibility Wind Speed Wind Dir Waves Ship Positions

HUAL Seoul

Last reported at 2014-Jul-23 11:10 UTC. Time now 2014-Jul-23 11:58 UTC.
Position N 39°34' W 075°33'.

Type: Cargo ship. MMSI: 257496000.

Date/timePositionNaut miles runAvg speedWind from/ knotsBaromVisibWave heightAir tempDewpointWater temp
2014-Jul-23 11:10N 39°34' W 075°33'710.5
2014-Jul-23 10:27N 39°41' W 075°31'1 0.3
2014-Jul-23 05:28N 39°42' W 075°31'1 0.1
2014-Jul-22 19:29N 39°43' W 075°30'19 9.6
2014-Jul-22 17:31N 39°53' W 075°09'2 0.3
2014-Jul-22 11:23N 39°54' W 075°08'0 0.0
2014-Jul-22 08:29N 39°54' W 075°08'0 0.0
2014-Jul-22 06:29N 39°54' W 075°08'0 0.0
2014-Jul-22 05:23N 39°54' W 075°08'0 0.0
2014-Jul-22 04:32N 39°54' W 075°08'0 0.0
2014-Jul-22 03:32N 39°54' W 075°08'0 0.0
2014-Jul-22 02:32N 39°54' W 075°08'3 0.7
2014-Jul-21 22:12N 39°53' W 075°12'812.5
2014-Jul-21 21:33N 39°50' W 075°21'1413.1
2014-Jul-21 20:30N 39°39' W 075°33'5416.4
2014-Jul-21 17:13N 38°51' W 075°04'710.7
2014-Jul-21 16:33N 38°45' W 074°58'1313.3
2014-Jul-21 15:33N 38°35' W 074°47'  
2014-Jul-18 16:04N 26°47' W 079°25'2715.9
2014-Jul-18 14:23N 26°28' W 079°04'1514.9
2014-Jul-18 13:21N 26°19' W 078°51'25 0.9
2014-Jul-17 09:33N 26°16' W 079°19'1615.7
2014-Jul-17 08:33N 26°04' W 079°30'1918.9
2014-Jul-17 07:33N 25°46' W 079°35'4319.1
2014-Jul-17 05:18N 25°08' W 079°57'  
2014-Jul-14 23:25N 29°19' W 094°49'0 0.1
2014-Jul-14 22:32N 29°19' W 094°49'0 0.0
2014-Jul-14 21:26N 29°19' W 094°49'0 0.0
2014-Jul-14 20:32N 29°19' W 094°49'0 0.0
2014-Jul-14 19:32N 29°19' W 094°49'0 0.0
2014-Jul-14 18:32N 29°19' W 094°49'0 0.0
2014-Jul-14 17:32N 29°19' W 094°49'0 0.0
2014-Jul-14 16:32N 29°19' W 094°49'0 0.0
2014-Jul-14 15:33N 29°19' W 094°49'0 0.0
2014-Jul-14 14:33N 29°19' W 094°49'0 0.0
2014-Jul-14 13:33N 29°19' W 094°49'0 0.0
2014-Jul-14 12:30N 29°19' W 094°49'5 1.8
2014-Jul-14 09:31N 29°21' W 094°43'1211.7
2014-Jul-14 08:29N 29°15' W 094°31'  

Dump ship's entire track history